Temp
67 67 65 65 65 67 67 67 68 67 68 69 68 69 69 68 68 67 67 67 67 68 68 67 66 67 67 67 65 65 65 66 65 64 63 64 63 62 66 67 67 67 65 64 63 60 58 56 60 65 67 69 71 72 72 74 74 74 72 73 77 76 75
66 66 66 66 66 66 66 66 67 68 68 67 69 67 68 68 67 67 67 66 66 66 68 67 66 66 64 64 64 64 63 63 64 64 64 63 64 63 65 65 66 66 66 64 63 62 59 58 58 59 62 67 69 72 72 73 74 74 75 75 77 77 76
66 65 66 65 65 65 66 65 67 67 68 67 67 67 67 68 67 67 66 65 64 65 65 65 64 64 63 63 63 63 63 62 62 62 61 63 65 64 64 64 64 65 65 64 63 61 62 62 58 61 63 62 62 67 70 71 73 75 75 75 74 77 77
65 65 65 64 64 64 66 65 66 67 67 67 67 66 66 67 66 66 65 65 65 65 65 65 64 64 63 63 63 63 62 62 62 61 61 61 63 63 63 64 63 63 60 59 60 61 60 60 61 63 64 68 66 63 68 71 72 74 76 76 75 76 77
67 65 65 65 64 65 66 65 66 66 66 66 66 66 65 66 65 65 65 65 64 64 64 64 64 64 64 64 63 63 62 62 62 61 60 59 60 61 61 62 62 62 62 60 60 60 59 59 59 60 63 67 68 70 74 72 74 74 76 77 78 78 78
67 67 67 67 66 66 66 66 65 66 66 65 66 66 65 65 65 64 64 64 64 64 64 64 64 64 63 63 63 62 61 61 61 61 60 58 58 58 60 61 62 61 61 63 62 60 59 59 59 58 64 66 61 64 70 72 71 77 78 78 80 80 80
66 66 67 68 67 67 67 66 66 67 66 66 66 66 66 66 66 65 65 64 64 64 64 63 63 64 64 64 63 61 61 61 61 60 60 59 59 59 60 59 60 61 60 61 61 61 59 58 57 57 57 61 63 64 69 71 74 71 75 79 79 81 80
67 67 67 68 68 66 66 66 67 68 67 67 67 67 66 65 65 64 64 64 63 63 63 63 63 63 63 63 63 61 61 62 61 61 60 59 59 59 58 58 58 60 60 61 61 60 61 59 58 57 56 54 57 62 63 69 71 71 71 76 79 79 79
67 67 67 67 67 67 66 66 66 66 68 68 67 66 65 65 64 64 64 64 64 64 64 63 63 63 63 62 62 61 60 62 60 60 60 60 58 58 58 58 59 58 59 60 61 60 61 60 59 60 59 57 54 54 60 61 65 68 73 72 77 78 78
65 65 66 66 65 65 66 66 67 66 67 66 65 66 64 65 65 65 64 63 63 63 63 63 63 63 63 62 61 60 60 61 61 60 60 59 59 59 59 57 58 59 59 58 59 60 60 60 61 60 60 58 57 54 54 56 60 63 69 72 70 75 78
66 66 66 66 66 65 64 65 65 65 65 65 65 64 65 63 64 64 64 63 63 63 63 63 63 63 62 62 61 61 61 61 60 60 60 60 59 59 58 59 59 59 59 58 58 58 59 59 59 60 61 61 60 56 55 54 56 63 64 69 71 71 75
66 66 66 66 66 65 65 65 65 65 65 64 64 64 63 63 64 64 64 64 63 63 63 63 63 63 63 62 61 60 60 61 60 59 59 58 58 58 57 57 58 58 58 58 58 58 58 59 59 60 61 61 61 59 56 56 52 60 65 64 68 73 72
67 66 66 65 65 65 66 65 65 64 64 65 65 65 64 64 64 63 64 63 63 63 62 62 63 62 62 61 61 61 60 60 59 59 59 59 59 58 57 57 57 57 58 58 59 58 58 59 59 59 60 60 59 59 58 56 53 54 62 63 65 68 70
65 66 66 65 65 65 66 65 65 66 66 64 65 64 64 65 65 64 64 64 64 62 61 61 61 62 61 60 60 60 60 60 59 59 58 58 58 57 58 57 57 57 58 56 58 58 59 59 59 59 59 59 58 58 57 55 54 55 60 64 64 65 68
66 66 65 65 64 66 66 65 65 65 64 65 65 65 66 64 65 65 65 64 63 63 62 62 61 62 61 59 58 59 58 59 58 58 57 57 57 57 56 57 57 57 58 57 57 59 60 59 60 59 59 57 57 57 58 54 54 54 54 60 61 65 65
65 64 64 65 64 65 65 65 65 64 65 64 64 65 65 64 64 65 64 63 63 62 62 61 61 61 60 60 59 58 58 58 57 56 56 56 58 57 56 56 56 57 57 56 57 58 58 58 60 59 57 58 56 56 57 56 53 52 52 55 59 60 62
65 64 64 64 64 65 66 65 65 64 65 65 64 64 64 65 64 64 63 62 62 62 61 61 61 61 60 60 59 58 58 57 57 57 56 57 57 57 56 55 56 56 57 55 56 57 58 58 58 58 58 58 57 56 55 55 54 52 52 51 56 59 60
64 64 64 65 64 65 65 65 64 65 65 64 64 63 63 64 64 64 61 62 62 62 61 61 60 59 59 59 58 57 57 57 56 56 56 56 55 56 56 55 56 57 56 55 55 56 57 55 58 58 57 58 58 58 57 56 55 55 53 51 53 57 58
64 64 64 64 65 65 65 65 64 64 65 64 63 63 63 63 64 64 63 63 62 62 62 61 60 59 59 58 57 57 56 56 56 56 56 56 56 56 55 56 56 56 56 55 55 55 56 55 56 56 56 57 59 58 56 56 56 55 54 53 53 54 57
65 65 64 65 65 65 65 64 64 64 64 64 63 62 63 63 63 63 63 62 62 61 60 60 59 58 58 58 57 57 56 56 55 55 55 55 56 56 56 56 55 55 55 55 55 55 55 55 54 54 55 55 56 56 55 56 56 56 55 54 55 56 56
66 65 65 65 65 65 64 63 63 64 63 63 63 63 63 62 61 62 62 62 61 60 59 59 59 58 58 57 57 56 55 54 55 54 54 55 54 55 55 55 55 55 55 56 55 55 55 54 55 54 55 56 56 55 54 54 54 54 54 54 54 54 56
65 65 64 64 64 64 63 63 63 63 62 62 60 62 62 61 60 61 61 60 60 59 58 57 58 58 57 56 56 55 54 54 53 53 53 54 54 54 55 55 55 55 54 50 47 47 48 48 52 52 54 55 54 54 55 55 54 54 54 53 53 55 55
64 64 64 63 63 63 63 63 62 62 62 62 61 59 59 60 60 59 58 59 58 57 56 56 50 46 50 56 56 55 54 54 54 53 53 53 53 54 54 54 54 50 47 47 46 44 44 44 45 49 52 53 53 53 52 52 52 53 53 52 53 53 52
63 63 63 63 63 63 63 62 61 59 57 55 56 56 55 58 58 59 58 56 55 54 55 53 42 41 42 44 53 54 54 53 53 53 53 52 52 53 53 54 54 52 51 49 51 44 43 43 43 43 43 45 47 51 51 50 51 52 51 51 52 53 52
62 62 63 63 63 63 61 60 59 57 54 54 55 56 56 57 56 56 55 55 53 52 52 46 40 40 40 41 45 54 54 53 53 53 53 53 53 53 53 52 53 52 52 52 51 52 49 45 42 42 41 41 41 41 43 48 49 50 50 50 51 52 52
62 62 62 63 62 60 60 59 58 57 55 53 52 52 53 54 54 54 55 55 53 52 52 43 41 41 40 40 40 46 55 53 53 53 53 52 52 52 52 51 52 52 52 48 50 53 52 51 46 44 43 42 42 41 40 40 41 48 51 49 50 50 52
61 62 62 61 60 60 59 59 58 57 55 54 53 51 50 51 52 53 54 55 54 54 53 44 41 41 41 39 38 42 54 52 52 52 52 52 52 52 51 51 51 51 52 52 52 51 51 51 50 50 50 51 51 49 43 41 40 39 43 49 50 49 52
60 61 62 60 59 59 59 58 57 56 56 55 55 53 52 51 50 51 52 54 53 53 53 43 40 40 40 39 38 41 53 51 52 52 52 52 52 51 51 51 50 50 51 51 51 49 49 49 49 48 48 48 49 50 51 52 53 53 51 50 50 50 51
59 60 60 59 58 58 57 57 56 55 55 56 56 54 53 52 50 50 52 52 52 52 52 41 40 40 40 39 38 49 53 52 52 52 52 52 52 53 52 51 51 50 50 50 47 42 43 47 47 47 46 47 49 49 50 49 46 46 50 52 52 53 53
58 59 59 58 57 57 55 55 54 55 54 54 54 53 52 52 53 52 51 51 52 53 53 45 39 40 40 39 41 52 53 53 53 51 51 52 52 52 52 52 51 50 50 50 45 41 40 40 46 46 46 47 47 47 48 50 46 43 41 42 42 43 42
58 58 58 57 57 56 56 57 55 54 53 51 51 52 52 52 53 52 51 51 54 53 54 48 40 40 39 39 43 51 53 53 52 51 51 52 52 52 51 46 47 49 49 49 43 40 39 42 45 46 45 45 44 44 45 48 48 48 44 42 41 40 40
58 58 58 58 57 55 54 52 52 52 50 50 51 52 51 51 51 52 52 50 48 51 53 49 41 40 39 39 43 51 52 53 51 51 51 51 51 51 51 48 45 45 47 46 41 40 38 41 45 45 44 43 42 42 44 45 45 45 46 46 47 48 46
58 59 59 59 58 56 54 52 50 50 51 53 52 52 51 52 50 50 50 50 49 51 53 53 49 39 40 40 40 49 53 51 50 50 51 50 49 50 50 50 48 41 39 38 38 37 37 37 42 44 43 42 41 40 44 44 44 44 44 44 44 45 45
58 59 60 58 56 53 51 50 51 52 51 52 51 50 49 49 48 48 48 50 51 51 51 53 51 40 39 39 38 40 50 50 50 50 50 49 49 48 49 50 50 45 40 39 38 38 37 37 38 42 42 41 41 42 42 42 42 40 42 42 42 42 43
59 58 59 56 52 51 51 52 51 51 50 48 48 46 45 46 47 49 49 48 49 50 49 44 51 44 40 39 38 38 45 49 49 49 47 48 48 48 48 49 49 46 39 38 37 37 37 37 37 41 40 38 37 37 40 41 41 41 41 40 40 41 41
57 56 54 54 52 51 50 49 49 48 46 46 45 46 46 47 49 49 49 50 51 51 51 50 41 45 41 39 38 38 37 41 39 44 45 45 46 47 48 48 47 41 38 37 37 37 37 37 37 40 37 37 37 36 37 40 40 39 39 39 39 39 40
55 53 52 53 52 50 48 48 47 47 46 45 44 46 48 48 49 49 51 54 54 55 53 53 45 39 42 38 38 37 37 36 37 43 44 44 46 47 47 46 44 38 37 37 36 36 37 37 39 37 36 36 36 36 39 39 38 38 37 37 37 37 38
MSLP
1018.40 1018.48 1018.80 1018.96 1019.04 1019.08 1019.16 1019.28 1019.32 1019.44 1019.48 1019.48 1019.60 1019.60 1019.60 1019.64 1019.68 1019.76 1019.80 1019.88 1019.96 1020.04 1020.04 1020.16 1020.28 1020.28 1020.24 1020.32 1020.36 1020.32 1020.28 1020.24 1020.28 1020.36 1020.52 1020.44 1020.44 1020.76 1020.28 1020.16 1020.16 1020.20 1020.28 1020.40 1020.44 1020.68 1020.80 1020.96 1020.44 1019.72 1019.56 1019.52 1019.44 1019.28 1019.20 1019.08 1019.00 1019.00 1019.12 1019.04 1018.88 1018.88 1018.96
1018.44 1018.64 1018.76 1018.88 1019.04 1019.12 1019.20 1019.32 1019.32 1019.44 1019.56 1019.68 1019.68 1019.76 1019.80 1019.84 1019.92 1020.00 1020.04 1020.12 1020.24 1020.28 1020.32 1020.44 1020.56 1020.64 1020.68 1020.68 1020.64 1020.64 1020.76 1020.80 1020.76 1020.76 1020.72 1020.88 1020.76 1020.88 1020.56 1020.56 1020.40 1020.36 1020.24 1020.36 1020.48 1020.60 1020.92 1021.04 1020.84 1020.60 1020.20 1019.60 1019.48 1019.24 1019.16 1019.08 1018.92 1018.84 1018.76 1018.72 1018.60 1018.56 1018.56
1018.44 1018.60 1018.68 1018.88 1019.00 1019.12 1019.20 1019.36 1019.40 1019.44 1019.56 1019.76 1019.88 1019.92 1020.00 1020.04 1020.16 1020.24 1020.32 1020.48 1020.56 1020.64 1020.64 1020.80 1020.88 1020.96 1021.00 1021.04 1021.12 1021.12 1021.12 1021.16 1021.24 1021.28 1021.32 1021.20 1021.08 1021.16 1021.04 1020.92 1020.80 1020.68 1020.56 1020.60 1020.64 1020.80 1020.72 1020.68 1021.04 1020.72 1020.32 1020.44 1020.40 1019.64 1019.24 1019.12 1018.88 1018.68 1018.56 1018.48 1018.52 1018.36 1018.28
1018.24 1018.48 1018.72 1019.00 1019.12 1019.28 1019.24 1019.40 1019.40 1019.48 1019.56 1019.72 1019.92 1020.08 1020.16 1020.24 1020.36 1020.44 1020.56 1020.68 1020.80 1020.84 1020.92 1021.00 1021.08 1021.16 1021.28 1021.36 1021.40 1021.44 1021.48 1021.52 1021.60 1021.64 1021.68 1021.72 1021.56 1021.56 1021.40 1021.32 1021.24 1021.20 1021.44 1021.44 1021.32 1021.20 1021.24 1021.12 1020.84 1020.48 1020.20 1019.88 1019.92 1020.04 1019.40 1018.96 1018.88 1018.56 1018.28 1018.16 1018.28 1018.12 1018.04
1017.92 1018.28 1018.44 1018.64 1019.00 1019.12 1019.20 1019.36 1019.48 1019.56 1019.68 1019.80 1019.92 1020.08 1020.32 1020.36 1020.48 1020.64 1020.72 1020.80 1020.92 1021.04 1021.12 1021.16 1021.28 1021.36 1021.44 1021.52 1021.60 1021.64 1021.72 1021.80 1021.84 1021.88 1022.00 1022.08 1022.04 1021.92 1021.96 1021.84 1021.80 1021.76 1021.72 1021.80 1021.84 1021.72 1021.60 1021.40 1021.36 1021.00 1020.56 1019.96 1019.76 1019.32 1018.76 1018.76 1018.56 1018.40 1018.08 1017.88 1017.76 1017.72 1017.68
1017.68 1017.88 1018.12 1018.32 1018.64 1018.88 1019.08 1019.28 1019.48 1019.52 1019.68 1019.84 1019.92 1020.04 1020.28 1020.40 1020.48 1020.68 1020.72 1020.84 1021.00 1021.12 1021.20 1021.28 1021.40 1021.48 1021.56 1021.64 1021.80 1021.88 1022.00 1022.04 1022.12 1022.16 1022.28 1022.48 1022.52 1022.48 1022.40 1022.28 1022.20 1022.16 1022.08 1021.96 1021.88 1021.96 1021.96 1021.92 1021.64 1021.40 1020.64 1020.36 1020.48 1019.92 1019.16 1018.80 1018.60 1017.96 1017.68 1017.60 1017.32 1017.24 1017.24
1017.52 1017.72 1017.88 1018.04 1018.32 1018.52 1018.80 1019.08 1019.20 1019.24 1019.48 1019.56 1019.76 1019.92 1020.16 1020.32 1020.44 1020.56 1020.72 1020.88 1021.04 1021.20 1021.32 1021.40 1021.48 1021.52 1021.56 1021.60 1021.84 1022.00 1022.12 1022.20 1022.28 1022.36 1022.44 1022.56 1022.64 1022.72 1022.68 1022.60 1022.56 1022.40 1022.44 1022.36 1022.24 1022.08 1022.12 1022.12 1021.96 1021.80 1021.44 1020.84 1020.44 1019.96 1019.16 1018.72 1018.20 1018.40 1017.72 1017.36 1017.24 1017.08 1017.04
1017.24 1017.48 1017.64 1017.76 1018.00 1018.36 1018.60 1018.88 1019.00 1019.04 1019.24 1019.40 1019.56 1019.76 1020.08 1020.28 1020.48 1020.64 1020.76 1020.92 1021.12 1021.28 1021.40 1021.52 1021.60 1021.64 1021.68 1021.72 1021.88 1022.12 1022.16 1022.24 1022.32 1022.36 1022.48 1022.60 1022.68 1022.72 1022.80 1022.80 1022.76 1022.60 1022.56 1022.48 1022.40 1022.32 1022.16 1022.20 1022.20 1022.12 1022.04 1021.60 1020.72 1020.20 1019.64 1018.84 1018.40 1018.32 1018.28 1017.64 1017.20 1017.12 1016.96
1017.04 1017.28 1017.52 1017.72 1017.92 1018.12 1018.32 1018.56 1018.84 1018.96 1019.00 1019.20 1019.48 1019.72 1020.04 1020.20 1020.44 1020.60 1020.76 1020.92 1021.08 1021.24 1021.36 1021.48 1021.52 1021.60 1021.72 1021.80 1021.92 1022.08 1022.24 1022.28 1022.36 1022.44 1022.48 1022.56 1022.72 1022.80 1022.80 1022.76 1022.64 1022.76 1022.76 1022.60 1022.44 1022.44 1022.32 1022.36 1022.28 1022.12 1022.00 1021.84 1021.60 1020.88 1020.00 1019.52 1018.88 1018.44 1017.92 1018.00 1017.32 1017.08 1017.04
1016.96 1017.20 1017.36 1017.56 1017.80 1018.04 1018.24 1018.44 1018.60 1018.76 1018.92 1019.16 1019.48 1019.68 1019.96 1020.20 1020.36 1020.48 1020.72 1020.96 1021.08 1021.20 1021.36 1021.44 1021.52 1021.60 1021.68 1021.76 1021.92 1022.08 1022.16 1022.20 1022.20 1022.40 1022.44 1022.48 1022.60 1022.60 1022.64 1022.72 1022.60 1022.56 1022.64 1022.68 1022.56 1022.40 1022.32 1022.28 1022.08 1022.04 1021.96 1021.92 1021.80 1021.68 1020.88 1020.04 1019.20 1018.96 1018.24 1017.96 1018.16 1017.36 1017.08
1016.72 1016.80 1017.00 1017.28 1017.60 1017.96 1018.24 1018.44 1018.60 1018.88 1019.00 1019.12 1019.32 1019.64 1019.84 1020.16 1020.32 1020.44 1020.64 1020.84 1021.00 1021.16 1021.32 1021.44 1021.48 1021.56 1021.64 1021.72 1021.92 1022.04 1022.16 1022.20 1022.28 1022.32 1022.40 1022.44 1022.52 1022.52 1022.60 1022.56 1022.56 1022.44 1022.52 1022.56 1022.48 1022.48 1022.32 1022.24 1022.08 1021.92 1021.80 1021.64 1021.76 1021.80 1021.32 1020.96 1019.52 1019.04 1018.72 1018.28 1018.04 1017.84 1017.36
1016.48 1016.64 1016.76 1017.04 1017.44 1017.80 1018.04 1018.20 1018.36 1018.60 1018.88 1019.16 1019.32 1019.60 1019.84 1020.08 1020.24 1020.40 1020.48 1020.68 1020.88 1021.08 1021.24 1021.40 1021.52 1021.56 1021.60 1021.72 1021.92 1022.08 1022.20 1022.20 1022.28 1022.40 1022.52 1022.60 1022.64 1022.60 1022.64 1022.68 1022.56 1022.44 1022.48 1022.44 1022.44 1022.40 1022.36 1022.24 1022.08 1021.92 1021.76 1021.68 1021.56 1021.68 1021.68 1021.36 1020.72 1018.76 1018.92 1018.64 1018.12 1017.84 1017.84
1016.00 1016.24 1016.56 1016.88 1017.16 1017.44 1017.60 1017.88 1018.08 1018.36 1018.64 1018.92 1019.04 1019.28 1019.56 1019.80 1020.04 1020.28 1020.44 1020.56 1020.80 1020.96 1021.20 1021.36 1021.44 1021.56 1021.60 1021.72 1021.88 1022.04 1022.24 1022.28 1022.32 1022.40 1022.44 1022.56 1022.64 1022.68 1022.72 1022.68 1022.68 1022.56 1022.52 1022.40 1022.24 1022.24 1022.28 1022.20 1022.20 1022.08 1021.88 1021.80 1021.76 1021.68 1021.68 1021.44 1021.08 1019.72 1019.28 1019.00 1018.60 1018.36 1018.12
1015.76 1015.96 1016.24 1016.52 1016.80 1016.96 1017.16 1017.48 1017.68 1017.88 1018.24 1018.60 1018.80 1019.08 1019.32 1019.52 1019.72 1019.96 1020.20 1020.44 1020.64 1020.96 1021.20 1021.36 1021.44 1021.52 1021.60 1021.80 1021.96 1022.16 1022.28 1022.28 1022.32 1022.36 1022.44 1022.52 1022.56 1022.64 1022.64 1022.60 1022.56 1022.56 1022.56 1022.52 1022.28 1022.20 1022.08 1022.08 1022.12 1022.08 1022.04 1022.00 1021.88 1021.76 1021.76 1021.56 1021.12 1019.96 1019.36 1019.24 1019.04 1018.68 1018.32
1015.80 1015.72 1015.80 1016.08 1016.40 1016.56 1016.76 1017.04 1017.32 1017.64 1017.92 1018.24 1018.48 1018.72 1019.00 1019.32 1019.56 1019.76 1019.96 1020.20 1020.56 1020.84 1021.12 1021.28 1021.48 1021.48 1021.68 1021.92 1022.12 1022.28 1022.36 1022.40 1022.44 1022.52 1022.52 1022.52 1022.52 1022.56 1022.60 1022.56 1022.44 1022.48 1022.44 1022.44 1022.40 1022.12 1021.92 1021.92 1021.80 1021.76 1021.72 1021.96 1021.92 1021.80 1021.68 1021.80 1021.28 1020.68 1019.68 1019.44 1019.12 1018.76 1018.56
1015.32 1015.60 1015.72 1015.64 1015.84 1016.08 1016.32 1016.56 1016.92 1017.28 1017.52 1017.84 1018.24 1018.40 1018.72 1019.04 1019.36 1019.60 1019.88 1020.20 1020.48 1020.80 1021.00 1021.28 1021.44 1021.48 1021.72 1021.88 1022.08 1022.36 1022.48 1022.56 1022.64 1022.64 1022.64 1022.60 1022.48 1022.52 1022.48 1022.48 1022.40 1022.36 1022.36 1022.32 1022.20 1022.04 1022.00 1021.88 1021.76 1021.68 1021.76 1021.72 1021.84 1021.88 1021.80 1021.68 1021.60 1021.16 1020.48 1019.72 1019.56 1019.08 1018.68
1015.08 1015.28 1015.48 1015.44 1015.52 1015.68 1015.96 1016.28 1016.52 1016.88 1017.12 1017.48 1017.88 1018.20 1018.48 1018.76 1019.12 1019.44 1019.84 1020.24 1020.52 1020.76 1021.00 1021.24 1021.36 1021.44 1021.60 1021.80 1021.96 1022.20 1022.44 1022.60 1022.68 1022.68 1022.72 1022.68 1022.60 1022.56 1022.48 1022.44 1022.32 1022.32 1022.24 1022.24 1022.08 1021.96 1021.76 1021.72 1021.68 1021.52 1021.52 1021.44 1021.44 1021.52 1021.56 1021.60 1021.48 1021.32 1020.80 1020.28 1019.56 1019.44 1018.96
1014.72 1014.88 1015.00 1015.04 1015.16 1015.32 1015.60 1015.96 1016.28 1016.48 1016.80 1017.20 1017.48 1017.92 1018.32 1018.60 1018.92 1019.24 1019.68 1020.04 1020.36 1020.64 1020.84 1021.00 1021.20 1021.48 1021.72 1021.84 1021.96 1022.20 1022.36 1022.52 1022.64 1022.68 1022.72 1022.72 1022.72 1022.60 1022.52 1022.44 1022.32 1022.24 1022.24 1022.20 1022.12 1021.92 1021.76 1021.88 1021.68 1021.52 1021.40 1021.20 1021.16 1021.00 1021.04 1021.12 1021.00 1020.84 1020.56 1020.24 1019.68 1019.44 1019.28
1014.60 1014.56 1014.64 1014.76 1014.96 1015.20 1015.48 1015.76 1016.04 1016.24 1016.32 1016.68 1017.12 1017.44 1017.76 1018.20 1018.48 1018.88 1019.32 1019.72 1020.08 1020.40 1020.60 1020.80 1021.04 1021.32 1021.56 1021.80 1022.00 1022.16 1022.32 1022.48 1022.56 1022.60 1022.60 1022.60 1022.60 1022.56 1022.60 1022.44 1022.32 1022.24 1022.16 1022.20 1022.08 1022.00 1021.92 1021.84 1021.76 1021.60 1021.40 1021.24 1020.96 1020.88 1020.88 1020.76 1020.64 1020.52 1020.36 1019.96 1019.60 1019.12 1019.04
1014.40 1014.48 1014.56 1014.68 1014.84 1015.08 1015.32 1015.64 1015.96 1016.16 1016.20 1016.20 1016.64 1017.04 1017.40 1017.80 1018.20 1018.52 1019.04 1019.44 1019.84 1020.16 1020.44 1020.68 1020.96 1021.24 1021.44 1021.64 1021.80 1022.00 1022.16 1022.28 1022.40 1022.48 1022.56 1022.52 1022.52 1022.56 1022.52 1022.44 1022.36 1022.28 1022.16 1022.08 1022.00 1021.92 1021.84 1021.76 1021.68 1021.56 1021.40 1021.32 1021.12 1020.96 1020.84 1020.60 1020.36 1020.16 1019.96 1019.64 1019.12 1018.84 1018.60
1014.24 1014.28 1014.36 1014.52 1014.68 1014.88 1015.04 1015.24 1015.36 1015.56 1015.80 1015.96 1016.12 1016.44 1016.92 1017.44 1018.08 1018.44 1018.84 1019.16 1019.56 1019.92 1020.28 1020.52 1020.76 1021.00 1021.20 1021.44 1021.64 1021.84 1022.00 1022.16 1022.20 1022.36 1022.48 1022.48 1022.48 1022.48 1022.44 1022.40 1022.32 1022.20 1022.12 1022.00 1021.96 1021.88 1021.84 1021.68 1021.48 1021.40 1021.16 1020.96 1020.88 1020.80 1020.72 1020.52 1020.32 1020.08 1019.76 1019.40 1019.04 1018.60 1018.24
1014.12 1014.20 1014.32 1014.44 1014.52 1014.68 1014.88 1015.04 1015.12 1015.20 1015.32 1015.56 1015.96 1016.24 1016.60 1017.08 1017.80 1018.28 1018.64 1018.96 1019.36 1019.68 1020.00 1020.32 1020.60 1020.80 1021.08 1021.36 1021.52 1021.76 1021.96 1022.08 1022.16 1022.24 1022.32 1022.32 1022.32 1022.28 1022.24 1022.24 1022.20 1022.12 1022.20 1022.32 1022.40 1022.36 1022.24 1022.12 1021.88 1021.44 1021.12 1020.96 1020.80 1020.60 1020.28 1020.12 1019.92 1019.68 1019.40 1019.24 1018.84 1018.44 1018.20
1014.12 1014.16 1014.24 1014.28 1014.32 1014.40 1014.60 1014.84 1015.04 1015.16 1015.24 1015.24 1015.88 1016.64 1017.16 1017.36 1017.56 1018.04 1018.44 1018.84 1019.20 1019.56 1019.92 1020.32 1020.84 1021.04 1021.12 1021.20 1021.48 1021.72 1021.92 1022.00 1022.04 1022.08 1022.16 1022.16 1022.12 1022.08 1022.08 1022.04 1022.04 1022.20 1022.24 1022.20 1022.12 1022.04 1022.00 1021.92 1021.88 1021.68 1021.24 1020.96 1020.76 1020.52 1020.32 1020.04 1019.80 1019.52 1019.20 1018.92 1018.64 1018.44 1018.12
1014.04 1014.04 1014.04 1014.12 1014.20 1014.36 1014.52 1014.88 1015.28 1015.72 1016.16 1016.52 1016.84 1016.80 1017.20 1017.72 1017.64 1017.72 1018.04 1018.60 1019.16 1019.48 1019.72 1020.12 1020.72 1021.00 1021.32 1021.52 1021.52 1021.68 1021.80 1021.88 1021.96 1021.96 1021.92 1021.92 1021.88 1021.80 1021.76 1021.76 1021.76 1021.76 1021.76 1021.64 1021.48 1021.52 1021.52 1021.48 1021.44 1021.40 1021.36 1021.28 1021.08 1020.80 1020.40 1020.08 1019.68 1019.44 1019.16 1018.72 1018.36 1018.08 1017.84
1013.88 1013.88 1013.96 1014.04 1014.16 1014.32 1014.68 1015.00 1015.32 1015.64 1015.96 1016.44 1016.76 1016.68 1016.84 1017.28 1017.76 1018.04 1018.28 1018.64 1019.08 1019.52 1019.76 1020.04 1020.32 1020.72 1021.08 1021.36 1021.52 1021.52 1021.64 1021.72 1021.80 1021.72 1021.68 1021.64 1021.52 1021.48 1021.52 1021.48 1021.52 1021.48 1021.40 1021.36 1021.32 1021.08 1020.88 1020.84 1020.84 1020.88 1020.88 1020.80 1020.76 1020.68 1020.56 1020.20 1019.76 1019.40 1019.08 1018.60 1018.24 1017.84 1017.64
1013.72 1013.72 1013.84 1013.92 1014.16 1014.48 1014.72 1014.92 1015.12 1015.48 1015.80 1016.08 1016.48 1016.68 1017.08 1017.44 1017.84 1018.04 1018.20 1018.52 1019.04 1019.48 1019.68 1020.04 1020.08 1020.44 1020.84 1021.16 1021.40 1021.48 1021.32 1021.56 1021.60 1021.52 1021.44 1021.40 1021.40 1021.36 1021.32 1021.24 1021.20 1021.16 1021.04 1021.16 1021.00 1020.68 1020.52 1020.36 1020.32 1020.32 1020.28 1020.20 1020.12 1020.08 1020.04 1020.00 1019.92 1019.64 1019.16 1018.76 1018.16 1017.68 1017.40
1013.64 1013.60 1013.72 1013.92 1014.12 1014.32 1014.56 1014.68 1014.88 1015.16 1015.56 1015.88 1015.96 1016.32 1016.84 1017.20 1017.56 1017.96 1018.16 1018.40 1018.80 1019.20 1019.44 1019.76 1019.92 1020.24 1020.60 1020.92 1021.16 1021.40 1021.24 1021.44 1021.52 1021.44 1021.28 1021.16 1021.16 1021.12 1021.08 1021.00 1020.92 1020.76 1020.68 1020.64 1020.56 1020.44 1020.28 1020.16 1019.96 1019.76 1019.56 1019.32 1019.08 1018.92 1018.96 1019.04 1019.16 1019.20 1019.12 1018.60 1018.16 1017.56 1017.16
1013.64 1013.56 1013.68 1013.88 1014.08 1014.20 1014.36 1014.56 1014.92 1015.20 1015.28 1015.24 1015.44 1015.96 1016.48 1017.00 1017.48 1017.88 1018.24 1018.44 1018.84 1019.16 1019.24 1019.60 1019.84 1020.12 1020.36 1020.64 1020.92 1021.24 1021.04 1021.28 1021.24 1021.16 1021.04 1020.92 1020.92 1020.88 1020.84 1020.80 1020.72 1020.60 1020.48 1020.40 1020.28 1020.32 1020.24 1020.00 1019.76 1019.52 1019.32 1019.00 1018.76 1018.48 1018.28 1018.00 1017.84 1017.80 1017.88 1017.92 1017.76 1017.48 1017.32
1013.72 1013.64 1013.72 1013.88 1014.04 1014.12 1014.32 1014.56 1014.80 1015.08 1015.28 1015.36 1015.52 1015.96 1016.56 1016.92 1017.48 1017.96 1018.20 1018.68 1018.92 1019.08 1019.20 1019.52 1019.68 1019.92 1020.16 1020.40 1020.80 1020.88 1020.68 1020.84 1020.80 1020.68 1020.56 1020.52 1020.56 1020.52 1020.52 1020.52 1020.48 1020.40 1020.28 1020.16 1020.08 1020.20 1020.24 1020.04 1019.68 1019.36 1019.00 1018.60 1018.28 1018.08 1017.84 1017.68 1017.68 1017.64 1017.48 1017.20 1016.92 1016.72 1016.60
1013.64 1013.48 1013.52 1013.76 1013.88 1014.00 1014.28 1014.60 1014.84 1015.08 1015.28 1015.32 1015.60 1015.96 1016.32 1016.72 1017.04 1017.48 1018.20 1018.64 1018.72 1018.80 1018.92 1019.32 1019.56 1019.72 1019.92 1020.20 1020.64 1020.36 1020.32 1020.28 1020.28 1020.28 1020.12 1020.12 1020.16 1020.20 1020.24 1020.28 1020.24 1020.12 1020.00 1019.80 1019.76 1019.88 1019.92 1020.00 1019.52 1019.08 1018.48 1018.08 1017.84 1017.76 1017.44 1017.32 1017.32 1017.28 1017.16 1017.08 1016.96 1016.88 1016.76
1013.52 1013.32 1013.36 1013.52 1013.56 1013.76 1013.88 1014.04 1014.44 1014.76 1014.92 1015.36 1015.64 1016.00 1016.32 1016.64 1017.00 1017.56 1018.04 1018.32 1018.28 1018.36 1018.52 1018.96 1019.40 1019.64 1019.84 1020.16 1020.40 1020.16 1019.96 1019.88 1019.88 1019.84 1019.68 1019.76 1019.84 1019.84 1019.80 1020.08 1020.12 1019.92 1019.68 1019.40 1019.40 1019.56 1019.64 1019.68 1019.20 1018.64 1018.20 1017.88 1017.64 1017.44 1017.20 1017.08 1016.84 1016.64 1016.60 1016.60 1016.52 1016.48 1016.40
1013.20 1013.04 1013.00 1013.08 1013.20 1013.52 1013.80 1014.00 1014.40 1014.76 1015.08 1015.32 1015.68 1016.16 1016.76 1017.24 1017.56 1017.76 1017.92 1018.00 1018.24 1018.28 1018.40 1018.88 1019.44 1019.60 1019.84 1020.08 1020.40 1020.16 1019.88 1019.64 1019.52 1019.44 1019.40 1019.40 1019.48 1019.48 1019.44 1019.44 1019.56 1019.56 1019.32 1019.08 1019.20 1019.32 1019.44 1019.44 1018.92 1018.44 1018.08 1017.76 1017.40 1017.16 1016.96 1016.88 1016.72 1016.52 1016.36 1016.16 1015.88 1015.76 1015.64
1013.00 1012.76 1012.60 1012.60 1012.88 1013.16 1013.60 1014.24 1014.76 1014.96 1015.04 1015.08 1015.60 1016.00 1016.60 1016.96 1017.56 1017.88 1018.16 1018.32 1018.56 1018.52 1018.52 1018.80 1019.28 1019.64 1019.80 1020.00 1020.32 1020.12 1019.64 1019.48 1019.32 1019.20 1019.20 1019.20 1019.24 1019.12 1019.04 1018.88 1018.76 1018.88 1018.92 1018.96 1019.08 1019.16 1019.16 1019.20 1018.88 1018.28 1017.96 1017.56 1017.24 1016.88 1016.72 1016.52 1016.40 1016.36 1016.12 1016.04 1015.76 1015.68 1015.44
1012.56 1012.36 1012.20 1012.32 1012.72 1013.32 1013.84 1014.20 1014.48 1014.60 1014.80 1015.24 1015.72 1016.16 1016.84 1017.32 1017.68 1018.08 1018.44 1018.48 1018.56 1018.72 1018.88 1018.92 1019.08 1019.72 1020.04 1020.28 1020.40 1020.48 1019.80 1019.52 1019.32 1019.20 1019.12 1019.12 1019.04 1018.80 1018.60 1018.40 1018.28 1018.36 1018.56 1018.68 1018.80 1018.84 1018.84 1018.76 1018.60 1018.20 1017.72 1017.24 1016.88 1016.64 1016.76 1016.52 1016.28 1016.36 1016.04 1015.84 1015.64 1015.44 1015.20
1012.16 1012.00 1012.08 1012.48 1012.88 1013.48 1013.80 1013.92 1014.00 1014.20 1014.72 1015.32 1015.88 1016.56 1017.16 1017.64 1017.92 1018.20 1018.52 1018.84 1018.88 1018.88 1019.08 1019.52 1019.32 1019.56 1019.92 1020.08 1020.12 1020.28 1020.04 1019.60 1019.52 1019.40 1019.24 1019.08 1018.88 1018.60 1018.36 1018.20 1017.92 1017.88 1018.32 1018.52 1018.56 1018.56 1018.48 1018.36 1018.12 1017.84 1017.20 1016.96 1016.76 1016.84 1016.72 1016.40 1016.16 1015.96 1015.68 1015.44 1015.28 1015.04 1014.84
1012.04 1012.12 1012.32 1012.48 1012.76 1013.24 1013.76 1014.12 1014.28 1014.64 1015.24 1015.76 1016.20 1016.80 1017.40 1017.84 1018.04 1018.32 1018.60 1018.60 1018.64 1018.76 1019.00 1019.28 1019.76 1019.72 1019.72 1019.92 1020.00 1020.00 1020.08 1019.96 1019.88 1019.84 1019.44 1019.08 1018.80 1018.40 1018.12 1017.88 1017.80 1018.04 1018.32 1018.44 1018.40 1018.20 1017.92 1017.64 1017.40 1016.88 1016.56 1016.40 1016.32 1016.28 1016.28 1015.88 1015.64 1015.44 1015.20 1014.96 1014.76 1014.52 1014.32
1012.08 1012.28 1012.52 1012.76 1013.16 1013.64 1014.12 1014.52 1015.12 1015.36 1015.56 1015.68 1016.12 1016.80 1017.48 1017.96 1018.12 1018.24 1018.08 1017.88 1018.12 1018.40 1018.80 1019.04 1019.36 1019.76 1019.80 1019.84 1019.88 1019.92 1019.92 1019.92 1020.04 1019.76 1019.52 1019.12 1018.64 1018.20 1017.88 1017.80 1017.88 1018.16 1018.24 1018.04 1017.80 1017.48 1017.16 1016.96 1016.56 1016.20 1016.12 1015.92 1015.80 1015.76 1015.48 1015.16 1015.00 1014.80 1014.64 1014.48 1014.32 1014.04 1013.76
Wind_Speed
4 3 3 3 2 3 4 4 4 4 5 5 6 6 6 6 6 7 7 7 8 7 7 7 7 6 6 7 7 7 6 7 7 6 6 5 3 2 3 2 2 2 1 1 1 2 3 5 3 2 2 2 4 3 3 2 1 2 3 4 5 5 5
2 2 2 3 4 3 5 3 4 5 5 4 5 6 6 7 6 7 8 8 8 8 7 7 7 8 9 8 8 8 8 7 7 6 6 6 5 5 3 4 3 3 2 3 5 4 2 3 4 2 3 4 4 1 0 2 4 4 4 4 4 5 5
4 3 2 4 5 4 6 5 4 4 4 5 5 6 7 7 7 8 8 9 9 8 8 9 9 10 9 9 9 8 8 8 7 7 7 6 6 6 5 4 4 4 4 3 4 5 3 2 4 5 5 6 6 4 5 5 5 4 4 5 5 6 5
6 4 4 4 4 4 5 5 5 4 4 5 5 5 6 7 7 7 7 8 8 8 8 9 9 9 8 8 8 10 10 9 7 7 8 8 6 7 7 5 5 4 4 3 4 5 5 4 6 6 5 6 7 8 5 4 6 6 6 5 5 5 5
7 5 6 6 6 7 6 6 4 4 4 4 5 6 6 6 6 6 7 8 8 8 8 8 8 8 8 8 8 7 8 8 8 8 8 8 8 6 7 6 5 5 4 4 4 4 4 5 6 7 7 7 8 7 6 6 7 8 6 5 4 4 4
7 7 7 5 6 6 5 6 6 6 5 5 6 6 7 7 7 7 7 7 7 7 8 9 8 9 8 8 8 9 8 8 8 8 8 9 8 7 6 5 5 5 4 4 4 4 4 4 4 6 7 7 8 8 8 8 7 6 7 7 5 3 3
7 7 6 6 6 5 5 6 7 7 7 7 7 7 7 7 6 6 7 8 8 8 9 9 8 8 8 8 8 8 8 7 7 8 8 8 7 7 6 5 6 5 4 5 4 4 4 5 4 5 7 7 8 9 8 9 8 8 7 4 5 5 5
6 6 6 5 5 6 5 6 5 5 6 6 7 6 7 7 7 7 7 8 8 8 8 8 7 7 7 7 7 7 6 6 7 6 6 7 6 6 6 5 4 4 4 4 4 4 4 4 4 5 6 8 9 8 9 8 8 9 9 8 7 6 6
5 5 5 4 4 5 6 6 6 6 5 5 4 6 6 7 7 8 8 8 8 8 8 8 7 7 7 7 6 6 6 4 6 6 5 5 5 5 4 3 2 3 3 3 3 2 2 2 3 3 4 5 8 10 8 9 8 7 6 7 6 6 5
7 8 7 7 7 5 5 5 5 5 5 4 5 5 7 6 7 8 8 8 7 8 8 7 7 7 7 7 6 6 6 5 5 5 4 4 4 3 3 3 3 2 2 2 2 2 2 2 2 2 3 4 5 8 9 10 9 8 6 5 6 5 6
7 8 8 7 6 5 5 4 3 3 5 5 5 4 6 7 6 8 8 7 7 7 8 7 7 7 7 6 6 6 5 5 5 4 4 3 3 3 3 3 2 2 2 2 2 3 3 3 3 3 3 3 4 7 8 10 12 8 8 7 7 7 4
8 7 6 6 5 6 7 6 6 5 4 5 5 5 6 7 7 7 7 8 7 7 7 6 6 5 6 6 5 5 4 4 4 4 3 3 2 2 2 2 2 2 2 2 2 1 2 3 3 3 3 4 5 6 7 8 12 8 6 8 7 7 8
9 9 8 7 7 8 8 7 7 6 6 6 6 7 6 7 8 8 7 8 8 7 7 6 6 6 5 5 5 4 4 3 4 4 3 3 2 2 1 2 1 1 1 2 1 2 2 2 3 4 4 4 5 6 6 8 11 15 7 10 10 10 11
10 8 8 8 8 8 8 7 7 7 6 6 7 7 7 8 9 9 9 8 9 8 7 7 6 6 5 6 5 5 4 3 3 3 3 3 3 3 3 3 2 2 1 2 1 2 2 2 3 3 4 4 5 5 6 8 11 14 9 6 8 9 10
7 8 10 9 10 9 9 8 8 7 8 7 7 8 8 7 8 9 9 9 9 8 8 8 7 6 6 6 6 4 3 3 3 3 2 3 3 3 3 4 4 3 2 2 2 3 2 2 3 3 3 4 5 6 6 7 10 12 13 8 9 9 9
9 9 10 10 11 10 9 9 8 9 8 7 7 7 8 8 9 10 9 9 9 9 8 8 6 6 6 6 6 5 3 2 2 2 2 2 3 3 3 4 4 4 3 4 3 3 3 3 3 3 4 4 5 6 7 8 9 11 14 11 9 10 8
9 10 10 10 11 11 9 8 9 9 9 7 8 7 8 9 9 9 9 9 9 8 9 7 7 6 6 6 5 5 3 2 1 1 2 2 3 3 3 4 4 4 4 5 5 4 4 4 4 4 5 4 5 6 7 7 9 10 11 13 10 10 9
10 11 12 10 11 11 10 9 8 10 9 8 9 8 8 8 9 10 9 10 9 9 9 8 7 7 6 5 5 4 3 2 1 1 2 3 3 4 4 4 5 5 5 5 5 5 5 6 6 6 6 5 5 5 5 7 9 9 11 13 13 11 10
11 12 12 11 11 10 9 9 9 8 10 11 10 10 11 10 10 11 11 10 10 9 8 7 7 7 6 6 5 4 3 2 1 1 2 3 4 4 4 5 5 5 6 6 6 6 6 7 7 7 7 7 7 7 7 8 9 10 11 12 12 12 9
10 10 10 9 7 8 9 8 8 9 10 11 12 11 11 11 9 11 11 10 10 9 8 7 7 6 6 5 4 3 2 1 0 1 2 3 4 4 5 5 6 6 6 7 7 8 8 8 7 8 8 8 8 8 8 8 8 9 10 11 11 11 10
10 9 9 8 9 9 9 10 12 11 10 11 12 13 13 12 9 9 10 10 9 9 8 7 7 6 5 4 3 3 1 1 1 1 2 3 3 4 4 5 5 6 7 7 7 8 8 8 8 9 8 9 9 10 10 9 8 9 9 10 10 10 9
8 8 8 9 10 10 10 10 10 10 11 10 7 10 11 12 12 11 10 10 10 8 7 6 5 5 5 4 3 2 2 1 1 0 1 1 2 3 3 4 4 5 7 9 11 11 12 11 10 11 10 9 10 10 11 10 10 10 10 10 10 9 10
8 9 9 10 11 11 10 10 10 10 11 11 9 7 8 8 11 11 11 10 9 7 6 5 6 7 4 4 3 2 2 1 1 1 1 1 2 2 3 4 4 6 8 10 11 12 13 13 13 13 12 11 11 10 10 11 11 10 10 11 10 10 10
8 9 10 9 9 9 8 6 5 4 7 9 9 12 11 9 9 11 12 10 9 7 6 6 11 9 8 5 3 3 2 2 2 2 2 2 3 3 4 4 5 6 7 8 8 9 10 13 14 14 16 16 15 13 12 12 12 11 11 12 11 11 11
7 9 9 9 8 7 6 7 8 10 11 11 8 7 10 10 9 7 8 9 8 7 6 11 13 12 10 9 5 3 3 2 2 2 2 3 3 4 5 5 6 5 6 7 9 10 11 10 11 12 14 15 15 17 17 15 14 12 12 12 12 12 12
7 7 7 7 6 7 9 10 11 11 10 9 8 9 8 10 10 10 10 10 8 7 7 12 12 12 10 10 8 5 3 3 3 3 3 4 4 5 5 6 6 6 6 8 9 9 10 11 11 12 12 14 16 18 18 18 18 16 15 16 15 15 14
8 6 6 6 7 9 10 12 11 10 11 12 12 11 10 10 9 9 9 10 9 8 8 12 12 12 11 10 9 7 3 4 4 5 5 4 4 5 6 7 7 8 8 9 9 10 10 11 12 11 11 11 11 12 13 18 20 21 19 16 17 17 16
8 8 7 6 8 9 10 9 10 10 11 12 12 12 12 10 8 8 7 7 7 8 7 13 12 11 10 10 9 8 5 5 5 5 5 5 6 6 7 7 8 9 9 10 9 10 12 13 12 11 12 12 12 13 13 14 13 12 12 13 16 17 17
7 8 8 7 9 9 9 10 11 9 8 6 7 9 8 9 10 9 8 8 7 8 7 12 12 11 10 9 9 6 6 5 6 6 5 6 6 7 7 8 9 10 10 11 12 11 11 12 14 14 14 14 14 14 13 13 13 12 14 15 15 16 15
7 7 9 9 10 10 10 9 8 8 9 9 10 10 10 9 10 10 9 8 8 7 7 10 11 11 10 9 6 6 5 5 6 6 6 7 7 8 8 8 9 10 11 12 12 11 11 12 14 15 17 17 15 15 14 13 13 14 14 17 20 20 21
8 9 9 11 10 10 11 10 10 9 10 9 9 8 8 7 7 7 9 9 8 7 6 8 12 10 10 9 8 6 6 6 6 7 8 8 8 8 9 11 12 12 12 13 13 11 11 11 14 17 17 17 17 16 15 13 12 12 13 13 15 17 19
9 9 10 12 10 10 9 8 6 5 5 7 8 8 7 6 6 5 6 5 7 7 4 5 9 10 10 10 7 7 7 7 7 7 8 9 8 9 9 10 14 14 14 15 15 15 14 14 15 16 16 17 17 17 15 14 14 14 13 14 14 14 13
10 10 11 12 10 10 8 7 8 9 8 9 9 8 7 7 7 5 3 3 4 5 4 3 6 9 10 10 9 6 6 7 8 9 9 9 10 10 10 10 10 13 16 16 15 14 14 13 14 16 16 16 17 18 14 15 15 14 15 14 15 14 15
10 11 11 10 8 7 7 9 10 10 10 8 7 7 6 5 4 4 3 3 3 3 3 4 4 5 3 4 4 4 6 8 9 9 9 10 10 11 11 10 10 12 10 9 10 12 14 14 14 16 17 17 17 17 16 16 16 16 17 16 16 15 14
10 10 8 6 7 8 8 8 11 10 7 8 9 8 6 4 4 3 2 1 2 3 2 2 5 2 3 5 6 6 6 8 8 9 10 10 11 11 11 12 15 15 12 10 11 13 15 17 19 18 18 20 20 19 18 17 16 14 14 14 14 14 13
9 6 6 8 11 10 9 10 9 9 11 10 9 8 6 4 4 3 2 2 2 2 2 2 3 6 8 7 7 8 8 8 9 8 9 11 11 11 12 16 15 12 10 13 17 20 22 23 21 19 21 19 19 19 18 17 16 15 14 14 14 14 14
7 5 6 7 6 8 8 9 7 6 8 9 9 6 4 4 4 3 3 2 2 2 1 2 2 4 6 8 8 9 9 9 9 8 9 11 11 14 17 15 14 16 19 20 22 21 21 21 19 22 22 22 21 20 17 16 15 14 13 13 13 14 15
Wind_Direction
189 169 163 147 110 130 129 113 104 97 87 91 97 93 95 92 88 85 84 83 82 78 76 71 65 61 65 62 51 47 48 54 54 61 65 48 53 69 23 62 46 14 65 275 275 294 303 310 328 294 254 305 321 291 287 310 291 244 229 231 237 231 230
164 112 139 147 152 150 138 123 109 105 98 87 91 97 98 98 93 93 87 85 82 80 80 80 73 66 61 57 52 50 47 49 53 61 68 57 52 44 35 43 28 22 15 40 42 30 317 307 306 315 317 327 314 285 116 310 291 262 251 248 249 249 234
175 149 163 156 159 162 151 146 131 127 119 112 100 99 101 100 99 98 95 92 88 84 81 81 79 73 67 64 59 55 53 57 51 49 53 59 58 52 43 26 14 -0 5 14 28 5 349 316 295 302 310 313 306 300 308 295 294 283 254 242 241 243 240
181 174 162 160 158 164 165 157 154 138 134 125 120 112 108 109 103 101 101 99 97 95 91 86 80 79 75 72 67 63 58 57 54 54 56 49 54 56 50 42 33 23 18 355 355 355 339 317 313 297 299 295 297 298 281 289 297 288 270 247 247 246 240
184 186 192 180 175 176 173 163 154 147 145 138 137 129 126 122 116 110 111 110 106 105 99 95 93 89 84 78 71 66 65 61 59 59 52 49 45 54 52 52 51 42 39 25 10 346 345 329 318 304 297 301 290 282 291 294 289 281 273 268 265 262 250
195 198 199 194 175 177 172 165 164 167 158 159 156 144 140 137 128 125 121 114 111 110 110 105 102 98 93 87 83 80 73 68 65 63 62 57 52 45 42 42 39 35 30 12 1 359 1 339 313 298 293 305 294 293 290 289 284 276 276 272 262 256 267
198 200 205 201 181 181 171 177 180 175 173 174 164 160 152 146 138 130 122 115 115 117 113 111 107 101 98 94 93 90 89 86 83 80 76 72 64 57 45 40 30 30 24 17 2 354 354 349 340 331 317 301 293 289 288 281 277 282 273 264 274 280 277
195 197 207 205 186 180 175 182 188 177 179 173 172 156 150 148 140 137 131 126 127 125 121 116 112 106 101 97 94 95 92 90 89 87 82 75 66 55 51 38 34 29 17 12 2 357 346 348 328 322 320 313 306 297 294 287 283 267 276 280 276 275 276
196 197 207 202 202 193 178 181 184 185 186 167 156 151 155 150 147 140 134 129 129 128 125 122 118 109 108 104 102 102 100 102 96 93 91 87 76 69 63 46 45 42 13 3 347 355 332 339 320 307 304 297 298 299 298 292 287 282 282 283 283 273 281
194 202 206 204 201 192 191 188 184 191 169 161 157 162 153 152 151 144 137 135 134 130 127 123 120 118 116 108 109 110 103 99 93 89 79 75 77 69 61 52 33 35 36 1 345 339 335 309 298 296 291 292 301 289 295 296 289 294 292 296 297 303 309
206 203 202 205 196 188 195 191 182 177 189 172 159 158 151 149 148 146 142 141 138 134 130 128 123 120 114 105 108 105 105 109 106 96 80 73 66 59 51 37 24 15 31 351 354 343 330 331 310 309 289 284 278 280 289 292 291 293 298 293 281 289 311
207 212 205 195 182 198 200 195 188 185 167 160 159 158 158 154 155 153 147 142 138 132 129 125 123 115 109 106 104 102 101 91 92 97 88 75 67 48 45 27 15 7 4 349 335 335 329 313 316 298 294 282 274 271 279 280 286 283 301 299 304 310 311
199 200 199 190 192 200 205 197 187 179 180 172 173 165 165 161 160 156 153 145 139 135 133 128 125 119 111 105 104 97 97 89 84 79 80 75 69 53 38 22 11 347 354 312 303 334 319 313 307 301 289 282 274 272 273 273 269 278 290 294 299 301 301
197 195 194 193 200 200 198 194 193 187 163 179 169 168 171 166 163 161 155 150 143 143 142 140 137 131 120 115 105 103 102 81 70 68 55 58 55 30 17 358 0 344 333 288 302 289 287 293 292 288 287 282 277 271 272 275 276 283 286 282 294 299 305
217 203 194 192 201 203 194 195 190 175 181 177 173 172 172 161 162 160 156 150 147 148 151 145 145 136 128 122 117 113 103 85 65 66 44 36 27 19 359 353 349 351 339 308 296 288 294 291 276 276 279 283 283 280 271 278 279 283 289 297 293 302 302
209 208 205 201 201 203 197 188 181 183 185 170 172 173 168 161 161 160 152 150 150 151 151 147 145 137 127 125 122 118 110 96 70 49 26 20 5 4 347 345 338 340 331 317 309 298 296 286 295 286 283 274 272 274 274 272 278 282 289 294 300 298 303
208 208 210 210 205 203 198 189 181 186 183 167 169 167 162 162 157 155 148 149 152 150 148 146 143 131 123 119 117 114 114 108 84 44 4 348 341 331 331 319 324 320 319 312 310 308 297 299 292 292 282 274 267 268 269 267 264 273 284 290 294 296 303
218 214 216 214 210 204 195 188 182 184 173 172 170 158 159 158 155 153 151 155 153 152 150 145 133 125 119 114 111 109 105 89 53 8 340 324 311 309 308 302 303 306 301 297 295 289 296 297 294 292 288 283 273 269 267 267 272 273 278 281 288 290 292
229 227 222 218 213 207 196 191 186 185 176 174 166 166 161 162 160 156 153 152 152 149 144 135 125 121 119 118 112 108 103 94 44 331 319 310 313 307 300 301 298 296 296 289 289 287 284 284 284 280 279 281 283 283 275 272 269 269 272 277 282 287 281
233 235 235 230 213 204 196 189 186 190 186 173 167 167 164 157 152 149 148 146 147 142 134 126 122 121 121 117 113 108 107 103 328 332 313 315 308 305 301 299 298 294 290 290 287 287 286 284 278 274 272 272 272 274 275 271 270 268 267 273 277 276 282
242 239 236 230 221 209 195 187 192 189 183 178 171 165 159 153 143 140 143 143 138 135 133 130 129 128 124 120 116 115 110 113 9 333 331 315 314 308 306 301 299 298 293 292 294 293 292 284 283 278 274 278 276 276 276 275 270 267 265 265 267 276 278
253 244 234 230 221 210 205 200 194 185 179 174 158 155 148 138 138 138 139 139 140 138 136 135 139 140 132 123 118 117 114 97 88 353 312 309 309 312 312 314 306 312 313 304 297 286 282 284 284 281 276 274 273 274 277 275 273 272 272 269 269 265 268
257 245 235 225 220 211 204 201 198 195 190 168 135 105 95 120 135 141 141 142 139 136 133 132 117 108 101 123 127 122 138 154 166 191 250 292 297 304 313 310 301 291 278 273 273 272 270 267 263 267 277 279 276 272 270 271 270 268 269 269 268 271 270
262 249 237 230 223 213 203 183 160 115 67 75 114 134 146 163 150 151 148 143 141 140 142 136 140 139 131 128 138 152 171 177 189 222 239 280 298 309 311 312 310 299 290 287 284 271 264 258 258 258 258 261 265 269 273 268 267 267 267 268 267 265 264
262 254 244 234 220 195 156 147 149 142 146 158 170 151 143 150 145 134 129 136 141 149 148 146 153 151 154 162 183 176 181 197 216 233 252 275 291 306 310 311 306 302 296 301 303 298 286 274 262 256 253 253 253 251 249 258 268 267 263 266 264 262 265
269 254 242 226 187 161 164 165 163 163 155 139 129 134 138 137 145 151 152 153 151 155 155 156 159 159 162 167 176 202 192 212 238 242 259 268 284 294 303 305 305 300 301 291 289 299 301 299 290 278 267 258 250 245 247 246 244 251 266 266 266 266 263
282 261 226 197 182 182 176 180 172 164 153 153 153 150 151 151 149 152 157 159 161 163 159 166 166 168 171 176 171 192 214 216 235 249 256 269 274 285 293 299 301 302 301 302 301 301 303 302 299 297 290 286 282 271 248 231 233 239 244 256 261 262 264
285 279 254 197 184 186 185 174 167 167 169 166 159 155 155 150 148 148 149 153 159 168 170 166 175 177 180 183 178 192 219 216 233 242 247 258 266 274 283 284 287 290 294 295 297 297 300 299 298 295 291 286 284 278 275 275 264 253 242 239 251 258 262
281 271 251 202 188 186 177 173 173 172 163 151 138 137 142 146 151 152 158 167 171 172 168 171 182 186 188 193 181 207 223 228 238 249 258 265 270 274 275 279 283 285 285 286 286 276 274 286 293 292 289 288 286 282 277 276 276 270 266 264 263 262 262
269 254 241 211 190 182 176 178 170 162 164 162 156 158 156 155 156 157 164 175 172 172 174 185 191 195 197 198 192 230 233 244 250 254 262 270 273 272 268 270 278 283 284 282 282 272 268 272 287 289 292 290 287 285 281 278 270 263 253 249 251 254 260
266 252 232 213 194 185 183 177 172 172 165 155 152 146 139 141 141 156 167 172 177 175 185 182 192 204 209 207 211 236 253 256 260 268 274 268 269 273 270 251 256 273 276 278 279 274 270 274 285 291 290 289 287 284 282 282 280 274 266 253 247 249 253
260 247 235 222 201 185 179 169 152 139 130 120 119 126 139 142 157 169 174 166 166 172 187 180 191 211 218 220 213 238 253 267 273 275 281 283 280 279 277 262 244 248 264 272 274 274 275 275 282 287 287 287 285 283 282 283 281 281 279 277 272 266 255
255 245 234 225 200 185 166 140 149 157 153 146 149 146 151 153 156 162 147 141 172 200 199 204 193 213 224 232 227 254 267 277 281 284 286 290 293 289 284 281 268 240 240 250 259 265 268 263 273 283 284 282 283 280 283 281 278 278 278 277 276 273 272
248 238 234 212 174 149 150 155 159 158 151 136 132 127 128 124 119 118 152 170 181 196 217 242 206 183 242 267 266 244 270 275 282 286 289 291 289 290 291 288 291 290 280 275 277 279 276 272 271 280 281 278 275 282 289 282 281 279 276 275 273 271 269
245 236 218 164 141 156 165 164 158 146 117 119 116 109 101 106 121 126 130 156 214 227 209 230 292 292 272 280 278 258 273 279 284 290 290 287 287 285 288 296 298 305 315 305 294 287 281 279 274 276 276 274 276 276 275 276 278 276 272 271 268 266 265
234 210 175 168 162 155 153 153 143 123 123 118 113 111 112 119 134 137 157 190 203 232 243 230 212 278 290 288 283 279 265 269 285 280 283 286 288 290 293 298 298 306 314 305 293 284 278 274 273 275 273 272 271 269 268 272 271 269 265 263 262 261 259
187 140 141 143 113 131 137 119 97 105 116 116 110 111 119 139 150 150 168 175 198 224 202 297 188 216 281 290 292 288 287 281 275 276 286 289 288 295 297 295 301 311 299 286 278 274 273 273 277 279 277 275 273 271 273 273 268 264 260 258 257 257 255